Location: Unspecified
(0.0000°N, 0.0000°E)
Time: 13:41:07
(UTC+00:00)

Vanguard 2 Rocket - Pass Details

Date: 23 November 2019
Orbit: 554 x 3326 km, 32.9° (Epoch: 08 December)

Event Time Altitude Azimuth Distance (km) Brightness Sun altitude
Rises 16:55:35 0° 224° (SW) 6,889 12.7 11.9°
Reaches altitude 10° 17:01:32 10° 215° (SW) 5,496 12.0 10.5°
Maximum altitude 17:14:18 32° 158° (SSE) 2,947 9.6 7.5°
Drops below altitude 10° 17:22:21 10° 98° (E) 3,452 9.4 5.6°
Sets 17:25:06 0° 87° (E) 4,098 9.6 5.0°
